DELTA 1 DEB, 10656

Orbit data source: Space-Track

DELTA 1 DEB, 10656 is space debris in SSO originally from a launch on Thu, 29 Jul 1976 UTC launched from the Air Force Western Test Range (AFWTR). Debris objects in space refer to the collection of defunct objects orbiting the Earth. Examples of debris include non-operational satellites, rocket bodies, and fragments generated from explosions, collisions, or faulty payload assembly.

Loading next visibility...
Identifier
10656, 1976-077S
Orbit
SSO
Country
Flag of USUS
Related business
Manufacturer
Unknown
Mission
Spacecraft
Bus & Motor
Unknown
Mass
Unknown
Launch date (UTC)
1976-07-29 (50 years ago)
Launch vehicle
Unknown
Launch site
Air Force Western Test Range (AFWTR)
Object type
Payload
Rocket body
Debris
Shape & HBR
Unknown shape, 0.6 m
Radar Cross Section
Medium (>0.1 m² and <1 m²)

Expand to show TLE details & history
Last TLE update: 6 hours ago

TLE from 6 hours ago
0 DELTA 1 DEB
1 10656U 76077S   26256.15944542 -.00000017  00000-0  20295-3 0  9990
2 10656 101.8751 224.5356 0077517 320.8460 106.1121 12.37129089262598
Epoch: 2026-09-13T03:49Z
TLE epoch observation values (Epoch: 2026-09-13T03:49:36.084Z)
Latitude
65.05753°
Longitude
148.2379°
Altitude
1,547.273 km
Speed
7.091 km/s
True Right ascension
13h 11m 11s
True Declination
64° 56' 20"
Sunlit
Object was in daylight at epoch
Visualization orbit readout
Latitude
Unknown
Longitude
Unknown
Altitude
Unknown
Speed
Unknown
Apparent Right ascension
Unknown
Apparent Declination
Unknown
Sunlit
N/A
Visualization observer readout
Local Sidereal Time
02:28:03
Azimuth
Unknown
Elevation
Unknown
Doppler factor
Unknown
Orbital elements
Apogee altitude
1,577.564 km
Perigee altitude
1,455.172 km
Semi-major axis
7,894.505 km
Eccentricity
0.00775
Inclination
101.8751°
RAAN
224.5356°
Arg. of periapsis
320.846°
True anomaly
106.96317°
Mean anomaly
106.1121°
Eccentric anomaly
106.53787°
Mean motion
3.09425 °/min
Orbital period
116.34 mins
BSTAR
0.00020295
Loading maneuver chart data...
Computing Atmospheric mass density...
Loading historical data...
Loading historical data...
Loading historical data...
Loading historical data...
Loading historical data...
Loading historical data...
Loading historical data...

Documentation

Showing up to 5 results
|